When you browse on this site, cookies collect data to enhance your experience and personalize the content and advertising you see.
Visit our Privacy Policy to learn more. By continuing to use the site, you agree to this use of cookies and data.

Hourly Weather Biryukov

Today, 13 July, Monday

Time Temperature Precipitation Wind Pressure Humidity
00:00 +28°C° 0 mm 2 mps 754 mmHg 49%
01:00 +28°C° 0 mm 3 mps 754 mmHg 49%
02:00 +27°C° 0 mm 3 mps 754 mmHg 49%
03:00 +27°C° 0 mm 4 mps 754 mmHg 40%
04:00 +28°C° 0 mm 3 mps 753 mmHg 40%
05:00 +29°C° 0 mm 3 mps 753 mmHg 40%
06:00 +30°C° 0 mm 2 mps 753 mmHg 40%
07:00 +33°C° 0 mm 3 mps 753 mmHg 35%
08:00 +36°C° 0 mm 4 mps 753 mmHg 30%
09:00 +39°C° 0 mm 5 mps 753 mmHg 27%
10:00 +41°C° 0 mm 5 mps 753 mmHg 22%
11:00 +44°C° 0 mm 6 mps 753 mmHg 18%
12:00 +45°C° 0 mm 6 mps 752 mmHg 13%
13:00 +45°C° 0 mm 7 mps 752 mmHg 13%
14:00 +45°C° 0 mm 7 mps 752 mmHg 13%
15:00 +45°C° 0 mm 7 mps 751 mmHg 12%
16:00 +44°C° 0 mm 6 mps 751 mmHg 12%
17:00 +44°C° 0 mm 6 mps 750 mmHg 12%
18:00 +42°C° 0 mm 5 mps 750 mmHg 12%
19:00 +40°C° 0 mm 5 mps 750 mmHg 14%
20:00 +37°C° 0 mm 4 mps 750 mmHg 15%
21:00 +35°C° 0 mm 4 mps 751 mmHg 16%
22:00 +34°C° 0 mm 5 mps 751 mmHg 18%
23:00 +34°C° 0 mm 6 mps 751 mmHg 21%

Tomorrow, 14 July, Tuesday

Time Temperature Precipitation Wind Pressure Humidity
00:00 +33°C° 0 mm 7 mps 751 mmHg 23%
01:00 +33°C° 0 mm 6 mps 751 mmHg 25%
02:00 +32°C° 0 mm 6 mps 751 mmHg 28%
03:00 +30°C° 0 mm 5 mps 751 mmHg 30%
04:00 +32°C° 0 mm 5 mps 751 mmHg 29%
05:00 +33°C° 0 mm 5 mps 751 mmHg 28%
06:00 +34°C° 0 mm 6 mps 751 mmHg 27%
07:00 +36°C° 0 mm 7 mps 751 mmHg 23%
08:00 +39°C° 0 mm 9 mps 751 mmHg 20%
09:00 +42°C° 0 mm 11 mps 751 mmHg 16%
10:00 +43°C° 0 mm 11 mps 751 mmHg 15%
11:00 +44°C° 0 mm 11 mps 751 mmHg 13%
12:00 +46°C° 0 mm 11 mps 751 mmHg 12%
13:00 +45°C° 0 mm 10 mps 751 mmHg 12%
14:00 +45°C° 0 mm 9 mps 751 mmHg 13%
15:00 +45°C° 0 mm 9 mps 750 mmHg 13%
16:00 +42°C° 0 mm 9 mps 751 mmHg 21%
17:00 +38°C° 0 mm 8 mps 751 mmHg 30%
18:00 +34°C° 0 mm 8 mps 752 mmHg 39%
19:00 +33°C° 0 mm 6 mps 752 mmHg 42%
20:00 +32°C° 0 mm 4 mps 753 mmHg 45%
21:00 +29°C° 0 mm 1 mps 753 mmHg 48%
22:00 +29°C° 0.1 mm 2 mps 753 mmHg 50%
23:00 +28°C° 0.1 mm 2 mps 753 mmHg 52%

Day after tomorrow, 15 July, Wednesday

Time Temperature Precipitation Wind Pressure Humidity
00:00 +28°C° 0.1 mm 2 mps 753 mmHg 55%
01:00 +27°C° 0 mm 2 mps 753 mmHg 55%
02:00 +27°C° 0 mm 1 mps 753 mmHg 55%
03:00 +27°C° 0 mm 1 mps 753 mmHg 56%
04:00 +27°C° 0 mm 2 mps 753 mmHg 57%
05:00 +27°C° 0 mm 2 mps 754 mmHg 58%
06:00 +27°C° 0 mm 3 mps 754 mmHg 58%
07:00 +28°C° 0 mm 3 mps 754 mmHg 57%
08:00 +29°C° 0 mm 4 mps 754 mmHg 55%
09:00 +30°C° 0 mm 4 mps 755 mmHg 53%
10:00 +32°C° 0 mm 4 mps 755 mmHg 46%
11:00 +33°C° 0 mm 5 mps 755 mmHg 39%
12:00 +35°C° 0 mm 6 mps 755 mmHg 33%
13:00 +35°C° 0 mm 6 mps 755 mmHg 30%
14:00 +34°C° 0 mm 6 mps 755 mmHg 27%
15:00 +34°C° 0 mm 6 mps 755 mmHg 25%
16:00 +33°C° 0 mm 6 mps 755 mmHg 25%
17:00 +33°C° 0 mm 5 mps 755 mmHg 26%
18:00 +32°C° 0 mm 4 mps 755 mmHg 26%
19:00 +29°C° 0 mm 4 mps 755 mmHg 31%
20:00 +28°C° 0 mm 4 mps 756 mmHg 37%
21:00 +26°C° 0 mm 4 mps 756 mmHg 42%
22:00 +25°C° 0 mm 4 mps 756 mmHg 47%
23:00 +22°C° 0 mm 3 mps 756 mmHg 53%

16 July, Thursday

Time Temperature Precipitation Wind Pressure Humidity
00:00 +21°C° 0 mm 3 mps 756 mmHg 58%
01:00 +21°C° 0 mm 3 mps 756 mmHg 61%
02:00 +20°C° 0 mm 2 mps 756 mmHg 64%
03:00 +19°C° 0 mm 2 mps 756 mmHg 66%
04:00 +21°C° 0 mm 1 mps 756 mmHg 64%
05:00 +22°C° 0 mm 1 mps 756 mmHg 61%
06:00 +22°C° 0 mm 1 mps 757 mmHg 59%
07:00 +24°C° 0 mm 2 mps 756 mmHg 53%
08:00 +25°C° 0 mm 3 mps 756 mmHg 48%
09:00 +27°C° 0 mm 3 mps 756 mmHg 43%
10:00 +28°C° 0 mm 3 mps 756 mmHg 40%
11:00 +28°C° 0 mm 3 mps 756 mmHg 36%
12:00 +29°C° 0 mm 3 mps 755 mmHg 32%
13:00 +30°C° 0 mm 3 mps 755 mmHg 30%
14:00 +31°C° 0 mm 3 mps 755 mmHg 29%
15:00 +31°C° 0 mm 3 mps 755 mmHg 27%
16:00 +32°C° 0 mm 4 mps 755 mmHg 27%
17:00 +30°C° 0 mm 4 mps 754 mmHg 28%
18:00 +30°C° 0 mm 5 mps 754 mmHg 29%
19:00 +28°C° 0 mm 4 mps 754 mmHg 32%
20:00 +26°C° 0 mm 4 mps 755 mmHg 35%
21:00 +24°C° 0 mm 3 mps 755 mmHg 38%
22:00 +24°C° 0 mm 3 mps 755 mmHg 40%
23:00 +22°C° 0 mm 3 mps 755 mmHg 42%

17 July, Friday

Time Temperature Precipitation Wind Pressure Humidity
00:00 +21°C° 0 mm 3 mps 755 mmHg 44%
01:00 +20°C° 0 mm 2 mps 755 mmHg 47%
02:00 +20°C° 0 mm 2 mps 755 mmHg 50%
03:00 +19°C° 0 mm 2 mps 755 mmHg 53%
04:00 +20°C° 0 mm 3 mps 755 mmHg 55%
05:00 +20°C° 0 mm 3 mps 755 mmHg 57%
06:00 +21°C° 0 mm 4 mps 755 mmHg 59%
07:00 +22°C° 0 mm 4 mps 755 mmHg 54%
08:00 +25°C° 0 mm 4 mps 755 mmHg 49%
09:00 +26°C° 0 mm 4 mps 755 mmHg 44%
10:00 +27°C° 0 mm 4 mps 755 mmHg 40%
11:00 +28°C° 0 mm 4 mps 755 mmHg 36%
12:00 +29°C° 0 mm 4 mps 755 mmHg 32%
13:00 +29°C° 0 mm 5 mps 755 mmHg 31%
14:00 +30°C° 0 mm 5 mps 754 mmHg 30%
15:00 +30°C° 0 mm 5 mps 754 mmHg 29%
16:00 +30°C° 0 mm 5 mps 754 mmHg 31%
17:00 +29°C° 0 mm 5 mps 754 mmHg 34%
18:00 +28°C° 0 mm 5 mps 754 mmHg 36%
19:00 +27°C° 0 mm 4 mps 755 mmHg 41%
20:00 +25°C° 0 mm 4 mps 755 mmHg 46%
21:00 +24°C° 0 mm 3 mps 755 mmHg 51%
22:00 +22°C° 0 mm 3 mps 755 mmHg 54%
23:00 +22°C° 0 mm 3 mps 755 mmHg 58%

18 July, Saturday

Time Temperature Precipitation Wind Pressure Humidity
00:00 +21°C° 0 mm 3 mps 755 mmHg 61%
01:00 +20°C° 0 mm 3 mps 755 mmHg 63%
02:00 +20°C° 0 mm 3 mps 755 mmHg 65%
03:00 +20°C° 0 mm 3 mps 755 mmHg 68%
04:00 +20°C° 0 mm 3 mps 756 mmHg 67%
05:00 +21°C° 0 mm 3 mps 756 mmHg 66%
06:00 +21°C° 0 mm 3 mps 756 mmHg 65%
07:00 +24°C° 0 mm 3 mps 756 mmHg 58%
08:00 +25°C° 0 mm 3 mps 756 mmHg 52%
09:00 +27°C° 0 mm 3 mps 756 mmHg 45%
10:00 +28°C° 0 mm 3 mps 756 mmHg 42%
11:00 +29°C° 0 mm 4 mps 756 mmHg 39%
12:00 +30°C° 0 mm 4 mps 755 mmHg 35%
13:00 +30°C° 0 mm 4 mps 755 mmHg 35%
14:00 +30°C° 0 mm 4 mps 755 mmHg 35%
15:00 +30°C° 0 mm 5 mps 755 mmHg 34%
16:00 +29°C° 0 mm 5 mps 755 mmHg 36%
17:00 +29°C° 0 mm 5 mps 755 mmHg 37%
18:00 +28°C° 0 mm 5 mps 755 mmHg 38%
19:00 +27°C° 0 mm 4 mps 755 mmHg 42%
20:00 +26°C° 0 mm 3 mps 755 mmHg 46%
21:00 +24°C° 0 mm 2 mps 755 mmHg 50%
22:00 +24°C° 0 mm 3 mps 755 mmHg 53%
23:00 +22°C° 0 mm 3 mps 755 mmHg 56%
Show more